OPS 4682 DEB, 17093

Orbit data source: Space-Track

OPS 4682 DEB, 17093 is space debris in LEO originally from a launch on Sat, 03 Apr 1965 UTC launched from the Air Force Western Test Range (AFWTR). Debris objects in space refer to the collection of defunct objects orbiting the Earth. Examples of debris include non-operational satellites, rocket bodies, and fragments generated from explosions, collisions, or faulty payload assembly.

Loading next visibility...
Identifier
17093, 1965-027U
Orbit
LEO
Country
Flag of USUS
Related business
Manufacturer
Unknown
Mission
Spacecraft
Bus & Motor
Unknown
Mass
Unknown
Launch date (UTC)
1965-04-03 (61 years ago)
Launch vehicle
Unknown
Launch site
Air Force Western Test Range (AFWTR)
Object type
Payload
Rocket body
Debris
Shape & HBR
Unknown shape, 0.1 m
Radar Cross Section
Small (<0.1 m²)

Expand to show TLE details & history
Last TLE update: 18 hours ago

TLE from 18 hours ago
0 OPS 4682 DEB
1 17093U 65027U   25340.57104911  .00000453  00000-0  15208-2 0  9992
2 17093  90.2382   4.2984 0026768 170.1626 345.3864 12.98096219921984
Epoch: 2025-12-06T13:42Z
TLE epoch observation values (Epoch: 2025-12-06T13:42:18.643Z)
Latitude
24.55161°
Longitude
-96.76789°
Altitude
1,252.711 km
Speed
7.24 km/s
True Right ascension
12h 17m 37s
True Declination
24° 25' 49"
Sunlit
Object was in daylight at epoch
Visualization orbit readout
Latitude
Unknown
Longitude
Unknown
Altitude
Unknown
Speed
Unknown
Apparent Right ascension
Unknown
Apparent Declination
Unknown
Sunlit
N/A
Visualization observer readout
Local Sidereal Time
06:12:41
Azimuth
Unknown
Elevation
Unknown
Doppler factor
Unknown
Orbital elements
Apogee altitude
1,287.148 km
Perigee altitude
1,246.221 km
Semi-major axis
7,644.822 km
Eccentricity
0.00268
Inclination
90.2382°
RAAN
4.2984°
Arg. of periapsis
170.1626°
True anomaly
345.30876°
Mean anomaly
345.3864°
Eccentric anomaly
345.3476°
Mean motion
3.24707 °/min
Orbital period
110.87 mins
BSTAR
0.0015208
Loading maneuver chart data...
Computing Atmospheric mass density...
Loading historical data...
Loading historical data...
Loading historical data...
Loading historical data...
Loading historical data...
Loading historical data...
Loading historical data...

Documentation

Showing up to 5 results
|